Weather Roundup
Issued by NWS Chicago, IL

Home | Current Version | Previous Version | Text Only | Print | Product List | Glossary On
Versions: 1 2 3 4 5 6 7 8 9 10 11 12 13 14 15 16 17 18 19 20 21 22 23 24 25 26 27 28 29 30 31 32 33 34 35 36 37 38 39 40 41 42 43 44 45 46 47 48 49 50
464
NZUS59 KLOT 280609
HRRLOT

CHICAGO AREA WEATHER ROUNDUP
NATIONAL WEATHER SERVICE CHICAGO/ROMEOVILLE IL
100 AM CDT MON MAY 28 2018

NOTE: "FAIR" INDICATES FEW OR NO CLOUDS BELOW 12,000 FEET WITH NO
SIGNIFICANT WEATHER AND/OR OBSTRUCTIONS TO VISIBILITY.

* THESE STATIONS ARE NOT UNDER NWS QUALITY CONTROL. THEY ALSO MAY NOT
  REPORT WEATHER SUCH AS PRECIPITATION OR FOG.

ILZ005-006-012>014-019>023-280700-
NORTHEAST ILLINOIS

CITY           SKY/WX    TMP DP  RH WIND       PRES   REMARKS
OHARE            N/A     78  62  57 CALM      29.90S HX  80
6HR MIN TEMP:  78; 6HR MAX TEMP:  91;

MIDWAY           N/A     80  60  50 CALM      29.90S HX  81
6HR MIN TEMP:  80; 6HR MAX TEMP:  90;

AURORA           N/A     72  66  81 CALM      29.91R
6HR MIN TEMP:  71; 6HR MAX TEMP:  91;

LANSING*         N/A     73  62  70 CALM      29.92R
JOLIET*          N/A     73  66  78 CALM      29.91R
WAUKEGAN         N/A     66  64  93 CALM      29.89F
6HR MIN TEMP:  65; 6HR MAX TEMP:  80;

DUPAGE AIRPORT   N/A     73  63  70 CALM      29.90S
6HR MIN TEMP:  73; 6HR MAX TEMP:  90;

WHEELING         N/A     74  63  68 CALM      29.91F
6HR MIN TEMP:  73; 6HR MAX TEMP:  90;

KANKAKEE*        N/A     75  65  70 SE5       29.92S
MORRIS*          N/A     77  61  58 CALM      29.89S
LEWIS AIRPORT*   N/A     75  63  66 SE6       29.91S
NORTHERLY ISL    N/A    -27 -62  14 CALM        N/A
$$

WIZ051-052-058>065-066-070>072-280700-
SOUTHEAST WISCONSIN

CITY           SKY/WX    TMP DP  RH WIND       PRES   REMARKS
MILWAUKEE        N/A     74  63  68 S3        29.89F
6HR MIN TEMP:  71; 6HR MAX TEMP:  79;

KENOSHA*         N/A     67  61  81 SW3       29.90F
RACINE*          N/A     69  63  81 S6        29.91F
BURLINGTON       N/A     66  64  93 CALM      29.90F
WAUKESHA         N/A     66  61  82 CALM      29.92F
WEST BEND        N/A     64  64 100 CALM      29.91S FOG
$$

INZ001>003-010>013-019-020-280700-
NORTHWEST INDIANA

CITY           SKY/WX    TMP DP  RH WIND       PRES   REMARKS
GARY*            N/A     68  63  83 CALM      29.92R
6HR MIN TEMP:  68; 6HR MAX TEMP:  89;

MICHIGAN CITY* NOT AVBL
RENSSELAER*    NOT AVBL
$$

LMZ740>746-280700-
SOUTHERN LAKE MICHIGAN

STATION/POSITION TIME  SKY/WX   TEMP WIND        PRES    VSBY
                                AIR  DIR/SP/G
                 (UTC)          (F)  (DEG/KT/KT) (MB)    (MI)
HARRISON CRIB    0540            82  180/  6/  6   N/A
BURNHAM HARBOR   0600                150/  1/  3   N/A
CALUMET HARBOR   0542            78  140/  1/  2 1012.5R
BURNS HARBOR     0540            78     CALM     1013.5S
MICHIGAN CITY    0540            76   90/  2/  2   N/A
$$

ABBREVIATIONS USED IN REMARKS
   TC - TEMPERATURE IN CELSIUS
  WCI - WIND CHILL INDEX
   HX - HEAT INDEX
  VSB - VISIBILITY
$$




USA.gov is the U.S. government's official web portal to all federal, state and local government web resources and services.